FloripaSat 1
1 44885U 19093G   25182.84965383  .00004508  00000-0  37976-3 0  9997
2 44885  97.8152 270.4969 0012286 128.9893 231.2425 14.98656164300089
RS-44
1 44909U 19096E   25182.60071647  .00000004  00000-0 -23049-4 0  9997
2 44909  82.5198 212.6479 0216351 243.9642 113.9042 12.79741536257504
UPMSat 2
1 46276U 20061E   25182.16445007  .00066905  00000-0  52408-3 0  9997
2 46276  97.2416 257.3139 0002334 152.5953 207.5434 15.71385715268855
SALSAT
1 46495U 20068K   25182.56216706  .00005724  00000-0  24628-3 0  9998
2 46495  97.8614 161.6107 0013142  87.3599 272.9140 15.22983688261870
CubeSX-Sirius-HSE
1 47951U 21022V   25157.62701764  .07883385  25648-5  89537-3 0  9993
2 47951  97.4004  72.1904 0010275 223.9924 136.0557 16.36879307233400
CubeSX-HSE
1 47952U 21022W   25157.69972699  .06655353  25454-5  93288-3 0  9992
2 47952  97.3980  72.5414 0010307 219.3637 140.6911 16.34906352233436
GRBAlpha
1 47959U 21022AD  25160.45426279  .07940347  25506-5  90589-3 0  9995
2 47959  97.3899  75.6235 0011032 227.2558 132.7812 16.36806138232695
TUBIN
1 48900U 21059X   25182.83368457  .00035395  00000-0  40295-3 0  9998
2 48900  97.6764 353.8994 0004249 146.3615 213.7912 15.62196532223516
LEDSAT
1 49069U 21073D   25182.72673828  .00055379  00000-0  59831-3 0  9990
2 49069  97.3878 265.2345 0007041 355.4582   4.6612 15.63432129214892
CUTE
1 49263U 21088D   25182.73406953  .00016408  00000-0  31848-3 0  9994
2 49263  97.4500 259.6421 0009078 154.1152 206.0553 15.47688298207854
TeikyoSat 4
1 49396U 21102B   25182.05467462  .00001681  00000-0  11385-3 0  9996
2 49396  97.4088 219.7073 0013939  63.9467 296.3195 15.07714574199788
Z-Sat
1 49399U 21102E   25182.81844886  .00003121  00000-0  17203-3 0  9998
2 49399  97.3785 223.6776 0018766  32.1650 328.0723 15.14565028200344
KOSEN 1
1 49402U 21102H   25182.84983334  .00005100  00000-0  23553-3 0  9992
2 49402  97.3688 227.2926 0015662   7.8582 352.2896 15.20535522200672
HO-113
1 50466U 21131B   25182.84431844  .00000382  00000-0  13299-3 0  9993
2 50466  98.5108 272.0886 0005343  76.2784 283.8999 14.40835667184652
Foresail-1
1 52766U 22057AL  25176.64799660  .13857605  27391-5  25307-3 0  9992
2 52766  97.5832 331.2310 0012137 233.7199 258.4922 16.46795272172486
SNUGLITE 2
1 52899U 22065F   25182.37248549  .00000826  00000-0  16949-3 0  9996
2 52899  98.1715 324.1369 0008533  52.2467 307.9507 14.63254504159672
UmKA 1 (RS40S)
1 57172U 23091G   25182.85837067  .00003897  00000-0  20871-3 0  9997
2 57172  97.5565 238.1260 0012780 255.1415 104.8402 15.15549814110851
CubeBel-2 (EU11S)
1 57175U 23091K   25182.89477137  .00007189  00000-0  33986-3 0  9991
2 57175  97.5564 239.4461 0010455 262.0722  97.9326 15.19656342110941
VERONIKA
1 58261U 23174F   25182.84199114  .00159413  00000-0  97481-3 0  9999
2 58261  97.4091 270.4606 0004248 261.4125  98.6660 15.76883065 92182
ENSO
1 58470U 23185J   25182.87487133  .00046614  00000-0  62158-3 0  9998
2 58470  97.3719 258.7431 0005050   7.2872 352.8457 15.57967619 88509
EIRSAT-1
1 58472U 23185L   25182.89288628  .00109261  00000-0  83081-3 0  9996
2 58472  97.3661 261.0873 0001949 338.8596  21.2586 15.71959282 88663
SONATE-2
1 59112U 24043Q   25182.25251814  .00014296  00000-0  40456-3 0  9991
2 59112  97.5162 313.8770 0011430  43.5816 316.6328 15.36348005 73661
MO-122
1 60209U 24125G   25182.58750644  .00013825  00000-0  38455-3 0  9995
2 60209  97.2774  33.9659 0019807  62.0382 298.2864 15.36750521 55336
GRBBeta
1 60237U 24128C   25182.62806673  .00003274  00000-0  25168-3 0  9992
2 60237  61.9924   2.6731 0053548  62.4551 298.1966 15.02793752 53514
Curium One
1 60242U 24128H   25182.82669753  .00006173  00000-0  42947-3 0  9991
2 60242  61.9827 359.9414 0053399  58.6787 301.9516 15.05387597 53580
ROBUSTA-3A
1 60243U 24128J   25182.57053913  .00005652  00000-0  40010-3 0  9999
2 60243  61.9897   1.7404 0052345  56.3751 304.2319 15.04910030 53530
CatSat
1 60246U 24125J   25182.52774488  .00007967  00000-0  26339-3 0  9990
2 60246  97.2577  32.8692 0042489  18.4108 341.8659 15.30734825 53345
HYPERVIEW-1G (RS66S)
1 61772U 24199AP  25182.89284844  .00015112  00000-0  42849-3 0  9993
2 61772  97.3507  51.7122 0015283 111.2136 249.0742 15.36216267 80384
AO-123
1 61781U 24199AY  25182.90404273  .00005380  00000-0  19524-3 0  9995
2 61781  97.3522  50.3667 0017407 116.2521 244.0510 15.28600057 80296
ZIMSAT 2
1 61783U 24199BA  25182.86581346  .00029023  00000-0  67890-3 0  9998
2 61783  97.3481  52.4756 0015107 108.7967 251.4920 15.41983733 83581
HADES-R (SO-124)
1 62690U 25009CK  25182.45689439  .00029170  00000-0  99229-3 0  9998
2 62690  97.4083 263.1956 0002376  51.8583 308.2871 15.30389716 25498
HYDRA-T
1 62692U 25009CM  25182.17701155  .00031247  00000-0  10537-2 0  9991
2 62692  97.4083 262.9584 0002061  50.8365 309.3059 15.30658986 25456
JINJUSat 1B
1 63210U 25052A   25182.70246684  .00008386  00000-0  38076-3 0  9993
2 63210  97.4390  76.5484 0002615 224.9965 135.1059 15.21031878 16615
NUSHSAT 1
1 63211U 25052B   25182.62800001  .00009016  00000-0  40594-3 0  9993
2 63211  97.4380  76.4813 0002437 234.2588 125.8421 15.21300102 16604
TEVEL2-4
1 63213U 25052D   25182.64602432  .00009331  00000-0  42386-3 0  9996
2 63213  97.4297  76.3419 0001393 264.9144  95.1932 15.20987132 16601
TEVEL2-5
1 63214U 25052E   25182.25216271  .00009503  00000-0  43199-3 0  9990
2 63214  97.4296  75.9518 0001377 268.6936  91.4142 15.20957845 16541
TEVEL2-6
1 63215U 25052F   25182.51803990  .00009278  00000-0  42227-3 0  9990
2 63215  97.4297  76.2090 0001441 268.9869  91.1201 15.20921956 16583
TEVEL2-1
1 63217U 25052H   25182.26906602  .00009187  00000-0  42090-3 0  9995
2 63217  97.4274  75.8961 0001776 301.6733  58.4329 15.20696250 16547
TEVEL2-2
1 63218U 25052J   25182.59836240  .00008814  00000-0  40390-3 0  9999
2 63218  97.4272  76.2209 0001729 300.6319  59.4745 15.20702403 16599
TEVEL2-3
1 63219U 25052K   25182.59856553  .00008721  00000-0  39976-3 0  9994
2 63219  97.4273  76.2202 0001775 300.6718  59.4342 15.20695900 16594
TEVEL2-8
1 63237U 25052AD  25182.48394882  .00007869  00000-0  37384-3 0  9997
2 63237  97.4337  76.0054 0006365 307.2874  52.7780 15.19477874 16569
TEVEL2-9
1 63238U 25052AE  25182.68474839  .00007747  00000-0  36871-3 0  9996
2 63238  97.4338  76.1982 0006407 306.1656  53.8985 15.19417018 16591
TEVEL2-7
1 63239U 25052AF  25182.62133826  .00007873  00000-0  37501-3 0  9990
2 63239  97.4339  76.1287 0006450 307.0605  53.0039 15.19382689 16589
HYDRA-W
1 63490U 25052BL  25181.69194172  .00017977  00000-0  74061-3 0  9994
2 63490  97.4287  75.6160 0009468 303.8033  56.2303 15.24115696 16470
HADES-ICM (SO-125)
1 63492U 25052BN  25182.63256662  .00018213  00000-0  76002-3 0  9995
2 63492  97.4292  76.5063 0009774 304.0261  56.0048 15.23676227 16617
